Weather History for Garden City, KS

Change the Weather History Date:

Monday, November 7, 2011

  Actual Average Record
Temperature  
Mean Temperature 40 °F 46 °F  
Max Temperature 46 °F 60 °F 82 °F (2010)
Min Temperature 34 °F 32 °F 18 °F (1991)
Degree Days  
Heating Degree Days 25 19  
Month to date heating degree days 124  
Since 1 July heating degree days 514  
Cooling Degree Days 0 0  
Month to date cooling degree days 0  
Year to date cooling degree days 1298  
Moisture  
Dew Point 36 °F    
Average Humidity 82    
Maximum Humidity 100    
Minimum Humidity 51    
Precipitation  
Precipitation 0.06 in 0.02 in 0.16 in (1981)
Month to date precipitation 0.15  
Year to date precipitation 18.55  
Sea Level Pressure  
Sea Level Pressure 30.01 in    
Wind  
Wind Speed 13 mph (NE)    
Max Wind Speed 20 mph    
Max Gust Speed 25 mph    
Visibility 7 miles    
Events Rain    
T = Trace of Precipitation, MM = Missing Value Source: NWS Daily Summary

Daily Weather History Graph

Daily Weather History Graph

Search for Another Location

Airport:

Trip Planner

Search our weather history database for the weather conditions in past years. The results will help you decide how hot, cold, wet, or windy it might be!

Date:

Astronomy

Nov. 07, 2011 Rise Set
Actual Time 7:14 AM CST 5:38 PM CST
Civil Twilight 6:47 AM CST 6:05 PM CST
Nautical Twilight 6:15 AM CST 6:36 PM CST
Astronomical Twilight 5:44 AM CST 7:07 PM CST
Moon 3:48 PM CST (11/7) 4:21 AM CST (11/7)
Length of Visible Light 11h 18m
Length of Day
10h 23m
Waxing Gibbous, 92% of the Moon is Illuminated
Nov 7
Waxing Gibbous
Nov 10
Full
Nov 18
Last Quarter
Nov 25
New
Dec 2
First Quarter

Hourly Weather History & Observations

Time (CST) Temp. Windchill Dew Point Humidity Pressure Visibility Wind Dir Wind Speed Gust Speed Precip Events Conditions
12:54 AM 35.1 °F 27.4 °F 23.0 °F 61% 30.03 in 10.0 mi ENE 10.4 mph - N/A   Clear
1:54 AM 34.0 °F 25.5 °F 21.9 °F 61% 30.02 in 10.0 mi ENE 11.5 mph - N/A   Clear
2:54 AM 34.0 °F 26.0 °F 21.9 °F 61% 30.03 in 10.0 mi East 10.4 mph - N/A   Clear
3:54 AM 37.9 °F 30.5 °F 24.1 °F 57% 30.04 in 10.0 mi East 11.5 mph - N/A   Overcast
4:54 AM 42.1 °F 34.9 °F 25.0 °F 51% 30.02 in 10.0 mi East 13.8 mph - N/A   Overcast
5:54 AM 42.1 °F 34.2 °F 26.1 °F 53% 30.02 in 10.0 mi East 16.1 mph - N/A   Overcast
6:54 AM 42.1 °F 35.2 °F 27.0 °F 55% 30.05 in 10.0 mi East 12.7 mph - N/A   Overcast
7:54 AM 43.0 °F 37.2 °F 28.0 °F 56% 30.06 in 10.0 mi ENE 10.4 mph - N/A   Overcast
8:54 AM 43.0 °F 36.8 °F 30.0 °F 60% 30.06 in 10.0 mi East 11.5 mph - N/A   Overcast
9:54 AM 39.0 °F 32.8 °F 33.1 °F 79% 30.09 in 5.0 mi NE 9.2 mph - 0.02 in Rain Light Rain
10:54 AM 41.0 °F 34.7 °F 37.4 °F 87% 30.05 in 7.0 mi ENE 10.4 mph - N/A Rain Light Rain
11:54 AM 42.1 °F 35.7 °F 37.9 °F 85% 30.04 in 9.0 mi NE 11.5 mph - 0.00 in   Overcast
12:54 PM 42.1 °F 34.5 °F 39.0 °F 89% 30.00 in 7.0 mi ENE 15.0 mph - 0.00 in Rain Light Rain
1:54 PM 45.0 °F 37.9 °F 43.0 °F 93% 29.97 in 10.0 mi East 16.1 mph - 0.01 in   Overcast
2:14 PM 46.4 °F 40.1 °F 42.8 °F 87% 29.94 in 9.0 mi ENE 15.0 mph - N/A   Overcast
2:54 PM 46.0 °F 39.9 °F 43.0 °F 89% 29.96 in 10.0 mi ENE 13.8 mph - N/A   Overcast
3:54 PM 46.9 °F - 43.0 °F 86% 29.95 in 10.0 mi NE 12.7 mph - N/A   Mostly Cloudy
4:08 PM 46.4 °F 40.4 °F 42.8 °F 87% 29.94 in 10.0 mi NE 13.8 mph - N/A   Overcast
4:54 PM 44.1 °F 36.8 °F 42.1 °F 93% 29.96 in 5.0 mi NE 16.1 mph - N/A   Overcast
5:54 PM 44.1 °F 36.8 °F 42.1 °F 93% 29.96 in 8.0 mi NE 16.1 mph - N/A   Overcast
6:54 PM 42.1 °F 33.6 °F 39.9 °F 92% 29.99 in 5.0 mi NE 18.4 mph 25.3 mph N/A   Overcast
7:09 PM 41.0 °F 31.9 °F 39.2 °F 93% 29.98 in 2.5 mi NE 19.6 mph - N/A   Overcast
7:23 PM 41.0 °F 32.2 °F 39.2 °F 93% 29.99 in 1.5 mi NNE 18.4 mph - N/A   Overcast
7:54 PM 41.0 °F 31.9 °F 39.2 °F 93% 29.99 in 0.8 mi NNE 19.6 mph - N/A   Overcast
8:54 PM 39.9 °F 32.1 °F 39.0 °F 97% 30.02 in 0.8 mi NE 13.8 mph - N/A   Mist
9:05 PM 39.2 °F 31.6 °F 39.2 °F 100% 30.02 in 1.5 mi NNE 12.7 mph - N/A   Overcast
9:13 PM 39.2 °F 31.2 °F 39.2 °F 100% 30.03 in 2.5 mi North 13.8 mph - N/A   Overcast
9:36 PM 39.2 °F 30.8 °F 39.2 °F 100% 30.02 in 3.0 mi NNE 15.0 mph - N/A   Overcast
9:54 PM 39.0 °F 29.9 °F 37.9 °F 96% 30.04 in 4.0 mi NNE 17.3 mph - 0.00 in   Overcast
10:54 PM 39.0 °F 29.6 °F 37.9 °F 96% 30.05 in 4.0 mi North 18.4 mph - 0.02 in Rain Rain
11:54 PM 39.0 °F 29.3 °F 37.9 °F 96% 30.02 in 7.0 mi NNE 19.6 mph - 0.01 in   Overcast